Pocatello, ID

1:20 PM MST on December 06, 2016 (GMT -0700)
Pocatello Regional

Weather History for KPIH - July, 2012

Change the Weather History Date:

Sunday, July 29, 2012

  Actual Average Record
Temperature  
Mean Temperature 75 °F 71 °F  
Max Temperature 96 °F 90 °F 101 °F (1994)
Min Temperature 54 °F 53 °F 39 °F (2015)
Degree Days  
Heating Degree Days 0 0  
Month to date heating degree days 1 17  
Since 1 June heating degree days 133 148  
Since 1 July heating degree days 1 17  
Cooling Degree Days 10 7  
Month to date cooling degree days 232 158  
Year to date cooling degree days 317 209  
Since 1 June cooling degree days 313 204  
Growing Degree Days 25 (Base 50)    
Moisture  
Dew Point 39 °F    
Average Humidity 36    
Maximum Humidity 64    
Minimum Humidity 8    
Precipitation  
Precipitation 0.00 in 0.02 in 0.57 in (1975)
Month to date precipitation 0.69 0.60  
Year to date precipitation 6.20 7.42  
Snow  
Snow 0.00 in - - ()
Month to date snowfall 0.0  
Since 1 June snowfall T  
Since 1 July snowfall 0.0  
Snow Depth 0.00 in    
Sea Level Pressure  
Sea Level Pressure 29.93 in    
Wind  
Wind Speed 7 mph (West)    
Max Wind Speed 15 mph    
Max Gust Speed 20 mph    
Visibility 10 miles    
Events      
T = Trace of Precipitation, MM = Missing Value Source: NWS Daily Summary

Daily Weather History Graph

Daily Weather History Graph

Search for Another Location

Airport or City:

Trip Planner

Search our weather history database for the weather conditions in past years. The results will help you decide how hot, cold, wet, or windy it might be!

Date:

Astronomy

Jul. 29, 2012 Rise Set
Actual Time 6:18 AM MDT 8:53 PM MDT
Civil Twilight 5:46 AM MDT 9:26 PM MDT
Nautical Twilight 5:05 AM MDT 10:06 PM MDT
Astronomical Twilight 4:19 AM MDT 10:52 PM MDT
Moon 6:05 PM MDT (7/29) 2:34 AM MDT (7/29)
Length of Visible Light 15h 39m
Length of Day
14h 35m
Waxing Gibbous, 85% of the Moon is Illuminated
Jul 29
Waxing Gibbous
Aug 1
Full
Aug 9
Last Quarter
Aug 17
New
Aug 24
First Quarter

Hourly Weather History & Observations

Time (MDT) Temp. Dew Point Humidity Pressure Visibility Wind Dir Wind Speed Gust Speed Precip Events Conditions
12:53 AM 72.0 °F 28.9 °F 20% 29.86 in 10.0 mi ENE 4.6 mph - N/A   Clear
1:53 AM 61.0 °F 39.9 °F 46% 29.90 in 10.0 mi North 6.9 mph - N/A   Clear
2:53 AM 59.0 °F 41.0 °F 51% 29.90 in 10.0 mi East 6.9 mph - N/A   Clear
3:53 AM 57.9 °F 41.0 °F 53% 29.91 in 10.0 mi NW 8.1 mph - N/A   Clear
4:53 AM 59.0 °F 42.1 °F 53% 29.92 in 10.0 mi SW 3.5 mph - N/A   Clear
5:53 AM 55.0 °F 43.0 °F 64% 29.94 in 10.0 mi West 4.6 mph - N/A   Clear
6:53 AM 60.1 °F 48.0 °F 64% 29.95 in 10.0 mi SW 6.9 mph - N/A   Clear
7:53 AM 69.1 °F 46.9 °F 45% 29.96 in 10.0 mi SSW 8.1 mph - N/A   Clear
8:53 AM 73.0 °F 48.0 °F 41% 29.98 in 10.0 mi WSW 8.1 mph - N/A   Clear
9:53 AM 78.1 °F 46.0 °F 32% 29.99 in 10.0 mi WSW 9.2 mph - N/A   Clear
10:53 AM 82.0 °F 41.0 °F 23% 29.99 in 10.0 mi WSW 13.8 mph 19.6 mph N/A   Clear
11:53 AM 84.0 °F 43.0 °F 24% 29.99 in 10.0 mi WNW 9.2 mph - N/A   Partly Cloudy
12:53 PM 87.1 °F 45.0 °F 23% 29.96 in 10.0 mi Variable 6.9 mph - N/A   Partly Cloudy
1:53 PM 90.0 °F 46.0 °F 22% 29.96 in 10.0 mi WNW 9.2 mph - N/A   Partly Cloudy
2:53 PM 93.0 °F 46.9 °F 20% 29.94 in 10.0 mi WNW 12.7 mph - N/A   Scattered Clouds
3:53 PM 93.9 °F 39.9 °F 15% 29.93 in 10.0 mi NW 12.7 mph - N/A   Scattered Clouds
4:53 PM 96.1 °F 33.1 °F 11% 29.89 in 10.0 mi Variable 4.6 mph - N/A   Scattered Clouds
5:53 PM 96.1 °F 27.0 °F 9% 29.89 in 10.0 mi NW 8.1 mph - N/A   Partly Cloudy
6:53 PM 95.0 °F 24.1 °F 8% 29.87 in 10.0 mi WNW 6.9 mph - N/A   Scattered Clouds
7:53 PM 91.0 °F 28.9 °F 11% 29.86 in 10.0 mi West 4.6 mph - N/A   Scattered Clouds
8:53 PM 84.0 °F 33.1 °F 16% 29.87 in 10.0 mi SW 4.6 mph - N/A   Clear
9:53 PM 73.4 °F 35.6 °F 25% 30.05 in 10.0 mi SE 3.5 mph - N/A   Clear
10:53 PM 69.1 °F 35.1 °F 29% 29.90 in 10.0 mi East 3.5 mph - N/A   Clear
11:53 PM 66.9 °F 34.0 °F 30% 29.90 in 10.0 mi East 3.5 mph - N/A   Clear